Custer, SD

6:39 AM MST on December 05, 2016 (GMT -0700)
Custer County

Weather History for KCUT - April, 2014

Change the Weather History Date:

Monday, April 7, 2014

  Actual Average Record
Temperature  
Mean Temperature 39 °F 37 °F  
Max Temperature 45 °F 47 °F 75 °F (1991)
Min Temperature 32 °F 26 °F -4 °F (2007)
Degree Days  
Heating Degree Days 26 28  
Month to date heating degree days 234 205  
Since 1 July heating degree days 7144 7080  
Cooling Degree Days 0 0  
Month to date cooling degree days 0 0  
Year to date cooling degree days 0 0  
Moisture  
Dew Point 20 °F    
Average Humidity 53    
Maximum Humidity 72    
Minimum Humidity 33    
Precipitation  
Precipitation T in 0.06 in 0.81 in (1993)
Month to date precipitation 0.65 0.33  
Year to date precipitation 3.18 2.20  
Sea Level Pressure  
Sea Level Pressure 30.04 in    
Wind  
Wind Speed 11 mph (NW)    
Max Wind Speed 24 mph    
Max Gust Speed 37 mph    
Visibility 10 miles    
Events Snow    
T = Trace of Precipitation, MM = Missing Value Source: NWS Daily Summary

Daily Weather History Graph

Daily Weather History Graph

Search for Another Location

Airport or City:

Trip Planner

Search our weather history database for the weather conditions in past years. The results will help you decide how hot, cold, wet, or windy it might be!

Date:

Astronomy

Apr. 07, 2014 Rise Set
Actual Time 6:25 AM MDT 7:28 PM MDT
Civil Twilight 5:55 AM MDT 7:57 PM MDT
Nautical Twilight 5:20 AM MDT 8:33 PM MDT
Astronomical Twilight 4:44 AM MDT 9:10 PM MDT
Moon 12:18 PM MDT (4/7) 2:12 AM MDT (4/7)
Length of Visible Light 14h 02m
Length of Day
13h 03m
First Quarter, 54% of the Moon is Illuminated
Apr 7
First Quarter
Apr 15
Full
Apr 22
Last Quarter
Apr 29
New
May 6
First Quarter

Hourly Weather History & Observations

Time (MDT) Temp. Windchill Dew Point Humidity Pressure Visibility Wind Dir Wind Speed Gust Speed Precip Events Conditions
12:53 AM 33.1 °F 28.7 °F 25.0 °F 72% 29.93 in 10.0 mi WNW 4.6 mph - N/A   Partly Cloudy
1:53 AM 34.0 °F 28.0 °F 25.0 °F 70% 29.93 in 10.0 mi NW 6.9 mph - N/A   Scattered Clouds
2:53 AM 34.0 °F 25.5 °F 24.1 °F 67% 29.90 in 10.0 mi NW 11.5 mph 19.6 mph N/A   Clear
3:53 AM 33.1 °F 25.5 °F 24.1 °F 70% 29.91 in 10.0 mi WNW 9.2 mph 17.3 mph N/A   Clear
4:53 AM 33.1 °F 27.7 °F 24.1 °F 70% 29.93 in 10.0 mi Variable 5.8 mph - N/A   Clear
5:36 AM 32.0 °F 24.2 °F 25.0 °F 75% 29.96 in 8.0 mi NNW 9.2 mph - 0.00 in Snow Light Snow
5:44 AM 32.0 °F 24.2 °F 25.0 °F 75% 29.97 in 9.0 mi NW 9.2 mph - 0.00 in   Scattered Clouds
5:53 AM 32.0 °F 24.8 °F 25.0 °F 75% 29.97 in 10.0 mi NNW 8.1 mph - 0.00 in   Partly Cloudy
6:53 AM 33.1 °F 24.9 °F 24.1 °F 70% 30.01 in 10.0 mi NW 10.4 mph 18.4 mph N/A   Scattered Clouds
7:53 AM 35.1 °F 26.9 °F 24.1 °F 64% 30.04 in 10.0 mi NNW 11.5 mph 25.3 mph N/A   Clear
8:53 AM 36.0 °F 27.1 °F 19.9 °F 52% 30.04 in 10.0 mi NNW 13.8 mph 34.5 mph N/A   Clear
9:53 AM 37.0 °F 26.4 °F 19.0 °F 48% 30.07 in 10.0 mi NW 20.7 mph 33.4 mph N/A   Clear
10:53 AM 39.0 °F 30.3 °F 15.1 °F 38% 30.08 in 10.0 mi North 16.1 mph 34.5 mph N/A   Clear
11:53 AM 41.0 °F 31.9 °F 15.1 °F 35% 30.08 in 10.0 mi NNW 19.6 mph 31.1 mph N/A   Clear
12:53 PM 42.1 °F 34.2 °F 15.1 °F 34% 30.07 in 10.0 mi NNW 16.1 mph 26.5 mph N/A   Clear
1:53 PM 42.1 °F 34.5 °F 18.0 °F 38% 30.07 in 10.0 mi NNW 15.0 mph 29.9 mph N/A   Partly Cloudy
2:53 PM 42.1 °F 34.2 °F 18.0 °F 38% 30.07 in 10.0 mi NW 16.1 mph 29.9 mph N/A   Clear
3:53 PM 44.1 °F 37.4 °F 17.1 °F 34% 30.06 in 10.0 mi WNW 13.8 mph 27.6 mph N/A   Mostly Cloudy
4:53 PM 44.1 °F 36.5 °F 17.1 °F 34% 30.07 in 10.0 mi NW 17.3 mph 25.3 mph N/A   Partly Cloudy
5:53 PM 44.1 °F 38.1 °F 17.1 °F 34% 30.08 in 10.0 mi NW 11.5 mph 24.2 mph N/A   Partly Cloudy
6:53 PM 42.1 °F 34.5 °F 18.0 °F 38% 30.09 in 10.0 mi WNW 15.0 mph 20.7 mph N/A   Partly Cloudy
7:53 PM 39.0 °F 33.4 °F 19.9 °F 46% 30.11 in 10.0 mi NW 8.1 mph - N/A   Clear
8:53 PM 37.0 °F 34.5 °F 19.9 °F 50% 30.12 in 10.0 mi WNW 3.5 mph - N/A   Clear
9:53 PM 33.1 °F 27.7 °F 19.0 °F 56% 30.14 in 10.0 mi WNW 5.8 mph - N/A   Clear
10:53 PM 34.0 °F 29.8 °F 19.0 °F 54% 30.12 in 10.0 mi WNW 4.6 mph - N/A   Clear
11:53 PM 32.0 °F 26.4 °F 19.0 °F 59% 30.11 in 10.0 mi West 5.8 mph - N/A   Clear